International Skating Union - Official Site

Essent ISU World Cup Astana
November 30, December 1-2, 2013

Draw | Lap Times | Index | World Cup

Referee: Jan  AUGUSTINUS  (NED)
Starter: Janny  SMEGEN  (NED)
StartTime: EndTime: Air Temp: Ice Temp: Humidity:
10:45 13:26 16.1℃ -5.9℃ 38.2%
Result 10000m Men Division B
Rankings as of Dec 1 2013 1:33PM
Rank: No.: Name: Nation: Time: Behind: Points:
1 167 Douwe  de Vries NED NED 13:05.58400m - 34.71 - (34.7)
800m - 1:05.32 - (30.6)
1200m - 1:36.54 - (31.2)
1600m - 2:07.95 - (31.4)
2000m - 2:39.18 - (31.2)
2400m - 3:10.30 - (31.1)
2800m - 3:41.56 - (31.2)
3200m - 4:12.87 - (31.3)
3600m - 4:43.80 - (30.9)
4000m - 5:15.38 - (31.5)
4400m - 5:47.02 - (31.6)
4800m - 6:18.55 - (31.5)
5200m - 6:49.88 - (31.3)
5600m - 7:21.13 - (31.2)
6000m - 7:52.30 - (31.1)
6400m - 8:23.66 - (31.3)
6800m - 8:54.99 - (31.3)
7200m - 9:26.50 - (31.5)
7600m - 9:58.05 - (31.5)
8000m - 10:29.41 - (31.3)
8400m - 11:00.76 - (31.3)
8800m - 11:32.07 - (31.3)
9200m - 12:03.49 - (31.4)
9600m - 12:34.56 - (31.0)
10000m - 13:05.58 - (31.0)
32
2 166 Bob  de Vries NED NED 13:07.01400m - 35.08 - (35.0)
800m - 1:05.60 - (30.5)
1200m - 1:37.14 - (31.5)
1600m - 2:08.27 - (31.1)
2000m - 2:39.62 - (31.3)
2400m - 3:10.52 - (30.9)
2800m - 3:41.55 - (31.0)
3200m - 4:12.22 - (30.6)
3600m - 4:43.32 - (31.0)
4000m - 5:14.70 - (31.3)
4400m - 5:46.05 - (31.3)
4800m - 6:17.11 - (31.0)
5200m - 6:48.81 - (31.6)
5600m - 7:20.73 - (31.9)
6000m - 7:52.95 - (32.2)
6400m - 8:24.71 - (31.7)
6800m - 8:56.53 - (31.8)
7200m - 9:28.09 - (31.5)
7600m - 9:59.75 - (31.6)
8000m - 10:30.91 - (31.1)
8400m - 11:01.77 - (30.8)
8800m - 11:32.88 - (31.1)
9200m - 12:04.22 - (31.3)
9600m - 12:35.47 - (31.2)
10000m - 13:07.01 - (31.5)
1.43 27
3 165 Robert  Bovenhuis NED NED 13:12.75400m - 35.61 - (35.6)
800m - 1:06.03 - (30.4)
1200m - 1:37.20 - (31.1)
1600m - 2:08.96 - (31.7)
2000m - 2:40.29 - (31.3)
2400m - 3:11.27 - (30.9)
2800m - 3:42.30 - (31.0)
3200m - 4:13.42 - (31.1)
3600m - 4:44.51 - (31.0)
4000m - 5:16.22 - (31.7)
4400m - 5:47.37 - (31.1)
4800m - 6:18.73 - (31.3)
5200m - 6:49.87 - (31.1)
5600m - 7:21.51 - (31.6)
6000m - 7:52.72 - (31.2)
6400m - 8:23.43 - (30.7)
6800m - 8:54.90 - (31.4)
7200m - 9:26.43 - (31.5)
7600m - 9:58.54 - (32.1)
8000m - 10:30.79 - (32.2)
8400m - 11:02.71 - (31.9)
8800m - 11:35.12 - (32.4)
9200m - 12:07.63 - (32.5)
9600m - 12:40.32 - (32.6)
10000m - 13:12.75 - (32.4)
7.17 23
4 123 Alexej  Baumgärtner GER GER 13:16.34400m - 35.68 - (35.6)
800m - 1:06.75 - (31.0)
1200m - 1:38.36 - (31.6)
1600m - 2:09.80 - (31.4)
2000m - 2:41.58 - (31.7)
2400m - 3:13.09 - (31.5)
2800m - 3:44.66 - (31.5)
3200m - 4:16.16 - (31.5)
3600m - 4:48.03 - (31.8)
4000m - 5:19.47 - (31.4)
4400m - 5:51.16 - (31.6)
4800m - 6:22.48 - (31.3)
5200m - 6:53.81 - (31.3)
5600m - 7:25.26 - (31.4)
6000m - 7:56.78 - (31.5)
6400m - 8:28.10 - (31.3)
6800m - 8:59.54 - (31.4)
7200m - 9:30.89 - (31.3)
7600m - 10:02.53 - (31.6)
8000m - 10:34.52 - (31.9)
8400m - 11:06.61 - (32.0)
8800m - 11:39.00 - (32.3)
9200m - 12:11.61 - (32.6)
9600m - 12:44.19 - (32.5)
10000m - 13:16.34 - (32.1)
10.76 19
5 204 Aleksandr  Rumyantsev RUS RUS 13:18.40400m - 36.56 - (36.5)
800m - 1:07.88 - (31.3)
1200m - 1:39.05 - (31.1)
1600m - 2:10.30 - (31.2)
2000m - 2:41.77 - (31.4)
2400m - 3:13.05 - (31.2)
2800m - 3:44.56 - (31.5)
3200m - 4:15.81 - (31.2)
3600m - 4:47.09 - (31.2)
4000m - 5:18.23 - (31.1)
4400m - 5:49.50 - (31.2)
4800m - 6:20.57 - (31.0)
5200m - 6:51.82 - (31.2)
5600m - 7:23.07 - (31.2)
6000m - 7:54.47 - (31.4)
6400m - 8:25.77 - (31.2)
6800m - 8:57.27 - (31.5)
7200m - 9:28.77 - (31.5)
7600m - 10:00.65 - (31.8)
8000m - 10:32.62 - (31.9)
8400m - 11:05.20 - (32.5)
8800m - 11:38.07 - (32.8)
9200m - 12:11.31 - (33.2)
9600m - 12:44.24 - (32.9)
10000m - 13:18.40 - (34.1)
12.82 15
6 146 Dmitry  Babenko KAZ KAZ 13:18.70400m - 34.34 - (34.3)
800m - 1:05.68 - (31.3)
1200m - 1:37.37 - (31.6)
1600m - 2:09.03 - (31.6)
2000m - 2:40.45 - (31.4)
2400m - 3:12.23 - (31.7)
2800m - 3:44.01 - (31.7)
3200m - 4:15.47 - (31.4)
3600m - 4:47.01 - (31.5)
4000m - 5:18.53 - (31.5)
4400m - 5:50.01 - (31.4)
4800m - 6:21.63 - (31.6)
5200m - 6:53.95 - (32.3)
5600m - 7:25.93 - (31.9)
6000m - 7:58.30 - (32.3)
6400m - 8:30.66 - (32.3)
6800m - 9:03.02 - (32.3)
7200m - 9:35.41 - (32.3)
7600m - 10:07.58 - (32.1)
8000m - 10:39.91 - (32.3)
8400m - 11:11.73 - (31.8)
8800m - 11:43.52 - (31.7)
9200m - 12:15.50 - (31.9)
9600m - 12:47.19 - (31.6)
10000m - 13:18.70 - (31.5)
13.12 11
7 205 Yevgeny  Seryaev RUS RUS 13:19.06400m - 35.50 - (35.5)
800m - 1:06.95 - (31.4)
1200m - 1:38.20 - (31.2)
1600m - 2:10.19 - (31.9)
2000m - 2:41.57 - (31.3)
2400m - 3:13.15 - (31.5)
2800m - 3:44.31 - (31.1)
3200m - 4:16.28 - (31.9)
3600m - 4:47.75 - (31.4)
4000m - 5:19.53 - (31.7)
4400m - 5:50.84 - (31.3)
4800m - 6:22.48 - (31.6)
5200m - 6:53.96 - (31.4)
5600m - 7:25.73 - (31.7)
6000m - 7:57.38 - (31.6)
6400m - 8:28.95 - (31.5)
6800m - 9:00.64 - (31.6)
7200m - 9:32.25 - (31.6)
7600m - 10:04.08 - (31.8)
8000m - 10:36.72 - (32.6)
8400m - 11:09.41 - (32.6)
8800m - 11:42.28 - (32.8)
9200m - 12:14.63 - (32.3)
9600m - 12:46.52 - (31.8)
10000m - 13:19.06 - (32.5)
13.48 9
8 105 Jordan  Belchos CAN CAN 13:24.65400m - 35.85 - (35.8)
800m - 1:06.81 - (30.9)
1200m - 1:37.80 - (30.9)
1600m - 2:09.16 - (31.3)
2000m - 2:40.62 - (31.4)
2400m - 3:11.94 - (31.3)
2800m - 3:43.40 - (31.4)
3200m - 4:15.37 - (31.9)
3600m - 4:47.27 - (31.8)
4000m - 5:19.04 - (31.7)
4400m - 5:50.70 - (31.6)
4800m - 6:22.67 - (31.9)
5200m - 6:54.51 - (31.8)
5600m - 7:26.68 - (32.1)
6000m - 7:58.66 - (31.9)
6400m - 8:30.67 - (32.0)
6800m - 9:02.32 - (31.6)
7200m - 9:34.97 - (32.6)
7600m - 10:07.45 - (32.4)
8000m - 10:40.26 - (32.8)
8400m - 11:13.07 - (32.8)
8800m - 11:45.98 - (32.9)
9200m - 12:18.99 - (33.0)
9600m - 12:51.96 - (32.9)
10000m - 13:24.65 - (32.6)
19.07 7
9 195 Jan  Szymanski POL POL 13:28.91400m - 35.96 - (35.9)
800m - 1:08.50 - (32.5)
1200m - 1:40.70 - (32.2)
1600m - 2:13.16 - (32.4)
2000m - 2:45.19 - (32.0)
2400m - 3:17.07 - (31.8)
2800m - 3:49.17 - (32.0)
3200m - 4:21.18 - (32.0)
3600m - 4:53.38 - (32.1)
4000m - 5:25.69 - (32.3)
4400m - 5:58.10 - (32.4)
4800m - 6:30.41 - (32.3)
5200m - 7:03.01 - (32.5)
5600m - 7:35.49 - (32.4)
6000m - 8:08.34 - (32.8)
6400m - 8:40.99 - (32.6)
6800m - 9:13.49 - (32.5)
7200m - 9:46.38 - (32.8)
7600m - 10:19.21 - (32.8)
8000m - 10:52.01 - (32.7)
8400m - 11:24.62 - (32.6)
8800m - 11:57.59 - (32.9)
9200m - 12:28.34 - (30.7)
9600m - 12:58.60 - (30.2)
10000m - 13:28.91 - (30.3)
23.33 6
10 178 Arjen  van der Kieft NED NED 13:33.08400m - 36.08 - (36.0)
800m - 1:06.90 - (30.8)
1200m - 1:37.52 - (30.6)
1600m - 2:07.77 - (30.2)
2000m - 2:38.34 - (30.5)
2400m - 3:09.14 - (30.7)
2800m - 3:40.06 - (30.9)
3200m - 4:11.08 - (31.0)
3600m - 4:42.26 - (31.1)
4000m - 5:13.43 - (31.1)
4400m - 5:45.40 - (31.9)
4800m - 6:17.72 - (32.3)
5200m - 6:50.43 - (32.7)
5600m - 7:23.24 - (32.8)
6000m - 7:56.39 - (33.1)
6400m - 8:28.94 - (32.5)
6800m - 9:01.76 - (32.8)
7200m - 9:35.08 - (33.3)
7600m - 10:09.21 - (34.1)
8000m - 10:42.96 - (33.7)
8400m - 11:17.04 - (34.0)
8800m - 11:51.05 - (34.0)
9200m - 12:25.24 - (34.1)
9600m - 12:59.01 - (33.7)
10000m - 13:33.08 - (34.0)
27.50 5
11 142 Takuro  Ogawa JPN JPN 13:35.42400m - 36.72 - (36.7)
800m - 1:08.69 - (31.9)
1200m - 1:40.96 - (32.2)
1600m - 2:13.70 - (32.7)
2000m - 2:46.51 - (32.8)
2400m - 3:19.31 - (32.8)
2800m - 3:51.88 - (32.5)
3200m - 4:24.56 - (32.6)
3600m - 4:57.15 - (32.5)
4000m - 5:29.75 - (32.6)
4400m - 6:02.20 - (32.4)
4800m - 6:34.70 - (32.5)
5200m - 7:07.10 - (32.4)
5600m - 7:39.76 - (32.6)
6000m - 8:12.40 - (32.6)
6400m - 8:44.52 - (32.1)
6800m - 9:16.49 - (31.9)
7200m - 9:48.20 - (31.7)
7600m - 10:19.83 - (31.6)
8000m - 10:51.90 - (32.0)
8400m - 11:24.07 - (32.1)
8800m - 11:56.31 - (32.2)
9200m - 12:29.12 - (32.8)
9600m - 13:02.12 - (33.0)
10000m - 13:35.42 - (33.2)
29.84 4
12 133 Marco  Cignini ITA ITA 13:36.99400m - 36.97 - (36.9)
800m - 1:08.94 - (31.9)
1200m - 1:41.63 - (32.6)
1600m - 2:14.13 - (32.5)
2000m - 2:46.62 - (32.4)
2400m - 3:19.07 - (32.4)
2800m - 3:51.39 - (32.3)
3200m - 4:23.34 - (31.9)
3600m - 4:55.50 - (32.1)
4000m - 5:27.30 - (31.8)
4400m - 5:59.25 - (31.9)
4800m - 6:31.15 - (31.8)
5200m - 7:03.03 - (31.8)
5600m - 7:35.01 - (31.9)
6000m - 8:07.26 - (32.2)
6400m - 8:39.44 - (32.1)
6800m - 9:11.71 - (32.2)
7200m - 9:44.17 - (32.4)
7600m - 10:17.08 - (32.9)
8000m - 10:50.00 - (32.9)
8400m - 11:23.14 - (33.1)
8800m - 11:56.24 - (33.1)
9200m - 12:29.67 - (33.4)
9600m - 13:03.14 - (33.4)
10000m - 13:36.99 - (33.8)
31.41 3
13 217 Emery  Lehman USA USA 13:38.81400m - 37.53 - (37.5)
800m - 1:10.89 - (33.3)
1200m - 1:43.96 - (33.0)
1600m - 2:16.62 - (32.6)
2000m - 2:49.71 - (33.0)
2400m - 3:22.79 - (33.0)
2800m - 3:55.31 - (32.5)
3200m - 4:27.94 - (32.6)
3600m - 5:00.56 - (32.6)
4000m - 5:32.53 - (31.9)
4400m - 6:04.54 - (32.0)
4800m - 6:36.59 - (32.0)
5200m - 7:08.55 - (31.9)
5600m - 7:40.45 - (31.8)
6000m - 8:12.44 - (31.9)
6400m - 8:44.63 - (32.1)
6800m - 9:16.90 - (32.2)
7200m - 9:49.14 - (32.2)
7600m - 10:21.36 - (32.2)
8000m - 10:53.86 - (32.5)
8400m - 11:26.76 - (32.8)
8800m - 11:59.74 - (32.9)
9200m - 12:32.75 - (33.0)
9600m - 13:05.76 - (33.0)
10000m - 13:38.81 - (33.0)
33.23 2
14 158 Byung-Wook  Ko KOR KOR 13:43.45400m - 36.93 - (36.9)
800m - 1:08.96 - (32.0)
1200m - 1:41.10 - (32.1)
1600m - 2:13.40 - (32.3)
2000m - 2:45.28 - (31.8)
2400m - 3:17.35 - (32.0)
2800m - 3:49.67 - (32.3)
3200m - 4:21.70 - (32.0)
3600m - 4:53.72 - (32.0)
4000m - 5:25.87 - (32.1)
4400m - 5:57.98 - (32.1)
4800m - 6:30.40 - (32.4)
5200m - 7:03.36 - (32.9)
5600m - 7:36.85 - (33.4)
6000m - 8:10.43 - (33.5)
6400m - 8:43.85 - (33.4)
6800m - 9:17.09 - (33.2)
7200m - 9:50.00 - (32.9)
7600m - 10:22.79 - (32.7)
8000m - 10:55.69 - (32.9)
8400m - 11:28.78 - (33.0)
8800m - 12:02.26 - (33.4)
9200m - 12:35.95 - (33.6)
9600m - 13:10.03 - (34.0)
10000m - 13:43.45 - (33.4)
37.87 1
15 184 Fredrik  van der Horst NOR NOR 13:47.14400m - 36.25 - (36.2)
800m - 1:07.94 - (31.6)
1200m - 1:40.17 - (32.2)
1600m - 2:13.02 - (32.8)
2000m - 2:45.61 - (32.5)
2400m - 3:18.24 - (32.6)
2800m - 3:50.60 - (32.3)
3200m - 4:22.87 - (32.2)
3600m - 4:55.11 - (32.2)
4000m - 5:27.81 - (32.6)
4400m - 6:00.54 - (32.7)
4800m - 6:33.36 - (32.8)
5200m - 7:05.94 - (32.5)
5600m - 7:38.69 - (32.7)
6000m - 8:11.56 - (32.8)
6400m - 8:44.57 - (33.0)
6800m - 9:17.61 - (33.0)
7200m - 9:50.66 - (33.0)
7600m - 10:23.76 - (33.1)
8000m - 10:57.02 - (33.2)
8400m - 11:30.75 - (33.7)
8800m - 12:04.27 - (33.5)
9200m - 12:38.44 - (34.1)
9600m - 13:12.83 - (34.3)
10000m - 13:47.14 - (34.3)
41.56 0
16 108 Mathieu  Giroux CAN CAN 13:48.27400m - 36.54 - (36.5)
800m - 1:09.16 - (32.6)
1200m - 1:42.08 - (32.9)
1600m - 2:14.36 - (32.2)
2000m - 2:46.76 - (32.3)
2400m - 3:19.01 - (32.2)
2800m - 3:51.69 - (32.6)
3200m - 4:24.05 - (32.3)
3600m - 4:56.73 - (32.6)
4000m - 5:29.23 - (32.5)
4400m - 6:02.25 - (33.0)
4800m - 6:35.14 - (32.8)
5200m - 7:08.37 - (33.2)
5600m - 7:41.35 - (32.9)
6000m - 8:14.47 - (33.1)
6400m - 8:47.23 - (32.7)
6800m - 9:20.08 - (32.8)
7200m - 9:52.93 - (32.8)
7600m - 10:25.78 - (32.8)
8000m - 10:58.60 - (32.8)
8400m - 11:31.78 - (33.1)
8800m - 12:05.29 - (33.5)
9200m - 12:39.41 - (34.1)
9600m - 13:13.78 - (34.3)
10000m - 13:48.27 - (34.4)
42.69 0
17 220 Patrick  Meek USA USA 13:49.28400m - 36.08 - (36.0)
800m - 1:08.19 - (32.1)
1200m - 1:40.76 - (32.5)
1600m - 2:13.14 - (32.3)
2000m - 2:45.78 - (32.6)
2400m - 3:18.13 - (32.3)
2800m - 3:50.93 - (32.8)
3200m - 4:22.93 - (32.0)
3600m - 4:55.26 - (32.3)
4000m - 5:27.37 - (32.1)
4400m - 5:59.67 - (32.3)
4800m - 6:31.57 - (31.8)
5200m - 7:04.29 - (32.7)
5600m - 7:36.70 - (32.4)
6000m - 8:09.24 - (32.5)
6400m - 8:42.00 - (32.7)
6800m - 9:14.82 - (32.8)
7200m - 9:47.80 - (32.9)
7600m - 10:21.17 - (33.3)
8000m - 10:54.73 - (33.5)
8400m - 11:29.18 - (34.4)
8800m - 12:03.55 - (34.3)
9200m - 12:38.44 - (34.8)
9600m - 13:13.67 - (35.2)
10000m - 13:49.28 - (35.6)
43.70 0
18 114 Longjiang  Sun CHN CHN 13:49.51400m - 36.82 - (36.8)
800m - 1:09.89 - (33.0)
1200m - 1:43.22 - (33.3)
1600m - 2:16.10 - (32.8)
2000m - 2:49.20 - (33.0)
2400m - 3:21.76 - (32.5)
2800m - 3:54.49 - (32.7)
3200m - 4:27.51 - (33.0)
3600m - 5:00.29 - (32.7)
4000m - 5:33.09 - (32.7)
4400m - 6:06.03 - (32.9)
4800m - 6:38.90 - (32.8)
5200m - 7:12.03 - (33.1)
5600m - 7:45.01 - (32.9)
6000m - 8:17.98 - (32.9)
6400m - 8:50.94 - (32.9)
6800m - 9:23.86 - (32.9)
7200m - 9:56.68 - (32.8)
7600m - 10:29.51 - (32.8)
8000m - 11:02.30 - (32.7)
8400m - 11:35.14 - (32.8)
8800m - 12:07.89 - (32.7)
9200m - 12:40.78 - (32.8)
9600m - 13:14.71 - (33.9)
10000m - 13:49.51 - (34.7)
43.93 0
19 191 Roland  Cieslak POL POL 13:53.86400m - 37.37 - (37.3)
800m - 1:09.90 - (32.5)
1200m - 1:42.48 - (32.5)
1600m - 2:15.27 - (32.7)
2000m - 2:47.86 - (32.5)
2400m - 3:20.63 - (32.7)
2800m - 3:53.19 - (32.5)
3200m - 4:26.36 - (33.1)
3600m - 4:58.68 - (32.3)
4000m - 5:31.58 - (32.8)
4400m - 6:04.66 - (33.0)
4800m - 6:37.78 - (33.1)
5200m - 7:10.86 - (33.0)
5600m - 7:44.22 - (33.3)
6000m - 8:17.18 - (32.9)
6400m - 8:50.72 - (33.5)
6800m - 9:23.96 - (33.2)
7200m - 9:57.57 - (33.6)
7600m - 10:31.26 - (33.6)
8000m - 11:05.45 - (34.1)
8400m - 11:39.33 - (33.8)
8800m - 12:12.92 - (33.5)
9200m - 12:46.94 - (34.0)
9600m - 13:21.01 - (34.0)
10000m - 13:53.86 - (32.8)
48.28 0
20 109 Alec  Janssens CAN CAN 13:54.02400m - 36.50 - (36.5)
800m - 1:08.70 - (32.2)
1200m - 1:41.77 - (33.0)
1600m - 2:14.54 - (32.7)
2000m - 2:46.96 - (32.4)
2400m - 3:19.88 - (32.9)
2800m - 3:52.86 - (32.9)
3200m - 4:25.85 - (32.9)
3600m - 4:58.80 - (32.9)
4000m - 5:31.83 - (33.0)
4400m - 6:04.87 - (33.0)
4800m - 6:37.72 - (32.8)
5200m - 7:10.15 - (32.4)
5600m - 7:42.72 - (32.5)
6000m - 8:15.24 - (32.5)
6400m - 8:47.62 - (32.3)
6800m - 9:20.28 - (32.6)
7200m - 9:53.13 - (32.8)
7600m - 10:26.65 - (33.5)
8000m - 11:00.68 - (34.0)
8400m - 11:34.87 - (34.1)
8800m - 12:09.35 - (34.4)
9200m - 12:44.15 - (34.7)
9600m - 13:18.96 - (34.8)
10000m - 13:54.02 - (35.0)
48.44 0
21 154 Hyong-Jun  Joo KOR KOR 13:55.52400m - 37.22 - (37.2)
800m - 1:09.85 - (32.6)
1200m - 1:43.17 - (33.3)
1600m - 2:16.19 - (33.0)
2000m - 2:49.09 - (32.9)
2400m - 3:21.84 - (32.7)
2800m - 3:54.74 - (32.9)
3200m - 4:27.41 - (32.6)
3600m - 5:00.48 - (33.0)
4000m - 5:33.28 - (32.7)
4400m - 6:06.48 - (33.2)
4800m - 6:39.72 - (33.2)
5200m - 7:13.25 - (33.5)
5600m - 7:46.71 - (33.4)
6000m - 8:20.40 - (33.6)
6400m - 8:54.00 - (33.6)
6800m - 9:27.66 - (33.6)
7200m - 10:01.05 - (33.3)
7600m - 10:34.86 - (33.8)
8000m - 11:08.65 - (33.7)
8400m - 11:42.58 - (33.9)
8800m - 12:16.19 - (33.6)
9200m - 12:49.82 - (33.6)
9600m - 13:22.77 - (32.9)
10000m - 13:55.52 - (32.7)
49.94 0
22 159 Jin-Yeong  Lee KOR KOR 13:56.88400m - 35.96 - (35.9)
800m - 1:07.78 - (31.8)
1200m - 1:39.98 - (32.2)
1600m - 2:12.43 - (32.4)
2000m - 2:44.71 - (32.2)
2400m - 3:17.18 - (32.4)
2800m - 3:49.52 - (32.3)
3200m - 4:21.80 - (32.2)
3600m - 4:54.12 - (32.3)
4000m - 5:26.69 - (32.5)
4400m - 5:59.31 - (32.6)
4800m - 6:32.03 - (32.7)
5200m - 7:04.48 - (32.4)
5600m - 7:37.42 - (32.9)
6000m - 8:10.48 - (33.0)
6400m - 8:43.73 - (33.2)
6800m - 9:17.39 - (33.6)
7200m - 9:51.68 - (34.2)
7600m - 10:25.94 - (34.2)
8000m - 11:00.52 - (34.5)
8400m - 11:36.09 - (35.5)
8800m - 12:11.33 - (35.2)
9200m - 12:46.48 - (35.1)
9600m - 13:21.80 - (35.3)
10000m - 13:56.88 - (35.0)
51.30 0
23 136 Luca  Stefani ITA ITA 13:56.89400m - 36.05 - (36.0)
800m - 1:08.21 - (32.1)
1200m - 1:40.88 - (32.6)
1600m - 2:13.64 - (32.7)
2000m - 2:46.76 - (33.1)
2400m - 3:19.17 - (32.4)
2800m - 3:51.93 - (32.7)
3200m - 4:24.51 - (32.5)
3600m - 4:57.19 - (32.6)
4000m - 5:29.80 - (32.6)
4400m - 6:02.38 - (32.5)
4800m - 6:35.01 - (32.6)
5200m - 7:07.68 - (32.6)
5600m - 7:40.79 - (33.1)
6000m - 8:13.97 - (33.1)
6400m - 8:47.29 - (33.3)
6800m - 9:20.90 - (33.6)
7200m - 9:54.62 - (33.7)
7600m - 10:28.94 - (34.3)
8000m - 11:03.53 - (34.5)
8400m - 11:38.33 - (34.8)
8800m - 12:13.32 - (34.9)
9200m - 12:48.23 - (34.9)
9600m - 13:22.85 - (34.6)
10000m - 13:56.89 - (34.0)
51.31 0
24 103 Ferre  Spruyt BEL BEL 13:57.30400m - 36.03 - (36.0)
800m - 1:08.36 - (32.3)
1200m - 1:41.21 - (32.8)
1600m - 2:14.28 - (33.0)
2000m - 2:46.99 - (32.7)
2400m - 3:19.98 - (32.9)
2800m - 3:53.31 - (33.3)
3200m - 4:26.84 - (33.5)
3600m - 5:00.29 - (33.4)
4000m - 5:33.87 - (33.5)
4400m - 6:07.84 - (33.9)
4800m - 6:42.26 - (34.4)
5200m - 7:16.19 - (33.9)
5600m - 7:50.49 - (34.3)
6000m - 8:23.63 - (33.1)
6400m - 8:56.44 - (32.8)
6800m - 9:29.37 - (32.9)
7200m - 10:02.67 - (33.2)
7600m - 10:36.19 - (33.5)
8000m - 11:09.39 - (33.1)
8400m - 11:42.61 - (33.2)
8800m - 12:16.12 - (33.5)
9200m - 12:49.66 - (33.5)
9600m - 13:23.49 - (33.8)
10000m - 13:57.30 - (33.8)
51.72 0
25 192 Sebastian  Druszkiewicz POL POL 14:04.71400m - 37.10 - (37.1)
800m - 1:09.45 - (32.3)
1200m - 1:41.84 - (32.3)
1600m - 2:14.35 - (32.5)
2000m - 2:46.64 - (32.2)
2400m - 3:19.19 - (32.5)
2800m - 3:51.52 - (32.3)
3200m - 4:23.97 - (32.4)
3600m - 4:56.33 - (32.3)
4000m - 5:28.98 - (32.6)
4400m - 6:01.73 - (32.7)
4800m - 6:34.83 - (33.0)
5200m - 7:08.06 - (33.2)
5600m - 7:41.76 - (33.6)
6000m - 8:15.64 - (33.8)
6400m - 8:49.75 - (34.1)
6800m - 9:23.89 - (34.1)
7200m - 9:58.34 - (34.4)
7600m - 10:33.48 - (35.1)
8000m - 11:09.13 - (35.6)
8400m - 11:44.26 - (35.1)
8800m - 12:19.44 - (35.1)
9200m - 12:54.39 - (34.9)
9600m - 13:29.40 - (35.0)
10000m - 14:04.71 - (35.3)
59.13 0
26 209 Martin  Hänggi SUI SUI 14:10.56400m - 36.08 - (36.0)
800m - 1:08.24 - (32.1)
1200m - 1:40.41 - (32.1)
1600m - 2:12.78 - (32.3)
2000m - 2:45.17 - (32.3)
2400m - 3:18.15 - (32.9)
2800m - 3:51.50 - (33.3)
3200m - 4:25.18 - (33.6)
3600m - 4:58.95 - (33.7)
4000m - 5:33.24 - (34.2)
4400m - 6:07.50 - (34.2)
4800m - 6:41.95 - (34.4)
5200m - 7:16.57 - (34.6)
5600m - 7:51.84 - (35.2)
6000m - 8:27.27 - (35.4)
6400m - 9:02.33 - (35.0)
6800m - 9:36.61 - (34.2)
7200m - 10:11.14 - (34.5)
7600m - 10:45.70 - (34.5)
8000m - 11:20.39 - (34.6)
8400m - 11:54.80 - (34.4)
8800m - 12:29.38 - (34.5)
9200m - 13:03.83 - (34.4)
9600m - 13:37.14 - (33.3)
10000m - 14:10.56 - (33.4)
64.98 0
27 116 Viktor-Hald  Thorup DEN DEN 14:36.94400m - 38.53 - (38.5)
800m - 1:11.46 - (32.9)
1200m - 1:44.46 - (33.0)
1600m - 2:17.20 - (32.7)
2000m - 2:50.10 - (32.9)
2400m - 3:22.79 - (32.6)
2800m - 3:55.58 - (32.7)
3200m - 4:28.58 - (32.9)
3600m - 5:02.13 - (33.5)
4000m - 5:35.23 - (33.1)
4400m - 6:09.03 - (33.7)
4800m - 6:42.88 - (33.8)
5200m - 7:17.33 - (34.4)
5600m - 7:51.98 - (34.6)
6000m - 8:25.95 - (33.9)
6400m - 9:00.60 - (34.6)
6800m - 9:35.36 - (34.7)
7200m - 10:11.22 - (35.8)
7600m - 10:47.23 - (36.0)
8000m - 11:24.78 - (37.5)
8400m - 12:03.83 - (39.0)
8800m - 12:42.90 - (39.0)
9200m - 13:22.00 - (39.1)
9600m - 14:00.93 - (38.9)
10000m - 14:36.94 - (36.0)
91.36 0
28 210 Roger  Schneider SUI SUI DNF400m - 36.35 - (36.3)
800m - 1:09.21 - (32.8)
1200m - 1:42.17 - (32.9)
1600m - 2:14.31 - (32.1)
2000m - 2:47.22 - (32.9)
2400m - 3:20.16 - (32.9)
2800m - 3:53.40 - (33.2)
3200m - 4:26.80 - (33.4)
3600m - 5:00.20 - (33.3)
4000m - 5:33.51 - (33.3)
4400m - 6:07.75 - (34.2)
4800m - 6:41.66 - (33.9)
5200m - 7:15.61 - (33.9)
5600m - 7:49.62 - (34.0)
6000m - 8:24.10 - (34.4)
6400m - 8:59.00 - (34.8)
6800m - 9:34.47 - (35.4)
0
29 121 Ewen  Fernandez FRA FRA DQ400m - 35.79 - (35.7)
800m - 1:07.88 - (32.0)
1200m - 1:41.24 - (33.3)
1600m - 2:13.81 - (32.5)
2000m - 2:46.25 - (32.4)
2400m - 3:18.71 - (32.4)
2800m - 3:51.25 - (32.5)
3200m - 4:23.50 - (32.2)
3600m - 4:55.94 - (32.4)
4000m - 5:28.04 - (32.1)
4400m - 6:00.29 - (32.2)
4800m - 6:32.50 - (32.2)
5200m - 7:04.64 - (32.1)
5600m - 7:36.78 - (32.1)
6000m - 8:08.96 - (32.1)
6400m - 8:40.86 - (31.9)
6800m - 9:13.09 - (32.2)
7200m - 9:45.30 - (32.2)
7600m - 10:17.54 - (32.2)
8000m - 10:49.79 - (32.2)
8400m - 11:22.12 - (32.3)
8800m - 11:54.37 - (32.2)
9200m - 12:27.19 - (32.8)
9600m - 12:59.08 - (31.8)
10000m - 13:29.87 - (30.7)
0
30 155 Cheol-Min  Kim KOR KOR DNS 0